Regional Weather Roundup
Issued by NWS

Home | Current Version | Previous Version | Graphics & Text | Print | Product List | Glossary Off
Versions: 1 2 3 4 5 6 7 8 9 10 11 12 13 14 15 16 17 18 19 20 21 22 23 24 25 26 27 28 29 30 31 32 33 34 35 36 37 38 39 40 41 42 43 44 45 46 47 48 49 50

000
ASUS43 KFSD 221910
RWRSD

WEATHER ROUNDUP FOR SOUTH DAKOTA
NATIONAL WEATHER SERVICE SIOUX FALLS SD
200 PM CDT MON MAY 22 2017

NOTE: "FAIR" INDICATES FEW OR NO CLOUDS BELOW 12,000 FEET WITH NO
SIGNIFICANT WEATHER AND/OR OBSTRUCTIONS TO VISIBILITY.


SDZ001>005-009-010-012>017-222000-
NORTHWEST AND NORTH CENTRAL SOUTH DAKOTA

CITY           SKY/WX    TMP DP  RH WIND       PRES   REMARKS
BUFFALO          N/A     59  42  53 N18G25    29.98R
FAITH            N/A     57  42  57 N13       29.99S
MOBRIDGE       MOSUNNY   62  44  51 N12G20    29.93F
$$

SDZ012>016-024>037-041>051-057-063-072>074-222000-
SOUTHWEST AND SOUTH CENTRAL SOUTH DAKOTA

CITY           SKY/WX    TMP DP  RH WIND       PRES   REMARKS
RAPID CTY ARPT CLOUDY    53  43  68 W16       30.03F
PIERRE         PTSUNNY   56  44  64 N23G30    29.93R
CUSTER         CLOUDY    48  33  56 NW8       30.06F
ELLSWORTH AFB  PTSUNNY   54  44  67 W15       30.01
PHILIP         PTSUNNY   55  46  71 N20       29.97R
PINE RIDGE     TSTM      50  43  77 W23       30.03R
SPEARFISH      FAIR      50  41  71 NW12      30.08F
WINNER         FAIR      64  46  52 NW13      29.91F THUNDER
$$

SDZ004>011-016>023-039-040-222000-
NORTHEAST SOUTH DAKOTA

CITY           SKY/WX    TMP DP  RH WIND       PRES   REMARKS
ABERDEEN       CLOUDY    59  36  42 CALM      29.91S
WATERTOWN      CLOUDY    58  41  53 NW14      29.86F
BROOKINGS      PTSUNNY   57  49  74 NW8       29.85F
SISSETON         N/A     62  44  51 N14       29.85F
$$

SDZ017-020-022-023-036>040-048>070-222000-
SOUTHEAST SOUTH DAKOTA

CITY           SKY/WX    TMP DP  RH WIND       PRES   REMARKS
SIOUX FALLS    CLOUDY    61  50  67 NW13      29.86S
HURON          LGT RAIN  51  50  96 NW15      29.89S
CHAMBERLAIN    PTSUNNY   64  47  53 NW15G24   29.90F
MITCHELL       CLOUDY    59  49  69 NW14      29.89F
YANKTON        SUNNY     60  48  64 SW16G23   29.90S
$$

ABBREVIATIONS USED IN REMARKS
   TC - TEMPERATURE IN CELSIUS
  WCI - WIND CHILL INDEX
   HX - HEAT INDEX
  VSB - VISIBILITY





USA.gov is the U.S. government's official web portal to all federal, state and local government web resources and services.